LA1HSA-13 Weather Reports


Display with metric or nautical units.
time (UTC)temp
F
wind
direction
speed
MPH
gust
MPH
rain 1hr
in
rain 24hr
in
rain mn
in
humidity
%
barometer
mb
20260504225003 36 0 0.0 4.0 0.00 0.02 0.00 84 1006.7
20260504224003 36 0 0.0 0.0 0.00 0.02 0.00 87 1006.7
20260504223004 36 0 0.0 0.0 0.00 0.02 0.00 89 1006.7
20260504222003 37 0 0.0 2.0 0.00 0.02 0.00 87 1006.7
20260504221003 38 0 0.0 2.0 0.00 0.02 0.00 86 1006.5
20260504220022 37 0 0.0 0.0 0.00 0.02 0.00 88 1006.3
20260504215003 38 0 0.0 2.0 0.00 0.02 0.02 85 1006.3
20260504214003 39 0 0.0 6.0 0.00 0.02 0.02 83 1006.2
20260504213003 40 27 2.0 7.0 0.00 0.02 0.02 82 1006.1
20260504212003 39 48 4.0 8.0 0.00 0.02 0.02 84 1005.9
20260504211003 40 46 4.0 11.0 0.00 0.02 0.02 83 1005.6
20260504210004 40 36 4.0 7.0 0.00 0.02 0.02 83 1005.8
20260504205003 40 43 4.0 9.0 0.00 0.02 0.02 83 1005.8
20260504204003 40 57 3.0 4.0 0.00 0.02 0.02 83 1005.7
20260504203003 40 54 4.0 4.0 0.00 0.02 0.02 83 1005.6
20260504202003 39 66 1.0 4.0 0.00 0.02 0.02 86 1005.3
20260504201004 39 40 2.0 6.0 0.00 0.02 0.02 88 1005.0
20260504200003 40 43 2.0 7.0 0.02 0.02 0.02 88 1005.0
20260504195003 40 52 5.0 11.0 0.02 0.02 0.02 87 1005.0
20260504194003 40 50 5.0 9.0 0.02 0.02 0.02 91 1005.1
20260504193003 40 65 4.0 11.0 0.02 0.02 0.02 92 1004.8
20260504192003 42 46 2.0 7.0 0.02 0.02 0.02 92 1004.4
20260504191003 42 45 4.0 15.0 0.02 0.02 0.02 89 1004.2
20260504190003 50 30 8.0 15.0 0.00 0.00 0.00 60 1003.8
20260504185003 50 21 4.0 15.0 0.00 0.00 0.00 60 1003.0
20260504184003 50 13 7.0 11.0 0.00 0.00 0.00 60 1002.9
20260504183003 51 2 5.0 14.0 0.00 0.00 0.00 60 1002.9
20260504182003 51 355 8.0 17.0 0.00 0.00 0.00 58 1003.1
20260504181003 51 1 6.0 16.0 0.00 0.00 0.00 56 1002.8
20260504180003 52 353 6.0 14.0 0.00 0.00 0.00 54 1002.9
20260504175003 53 11 4.0 15.0 0.00 0.00 0.00 51 1003.1
20260504174003 53 343 6.0 15.0 0.00 0.00 0.00 49 1002.8
20260504173003 54 2 5.0 15.0 0.00 0.00 0.00 49 1003.1
20260504172003 53 19 4.0 9.0 0.00 0.00 0.00 48 1002.8
20260504171003 54 32 4.0 15.0 0.00 0.00 0.00 48 1003.1
20260504151003 58 351 8.0 15.0 0.00 0.00 0.00 39 1003.3
20260504141003 58 39 7.0 13.0 0.00 0.00 0.00 36 1003.7
20260504082003 50 37 7.0 13.0 0.00 0.00 0.00 50 1004.5
20260504081003 51 34 5.0 13.0 0.00 0.00 0.00 49 1004.4
20260504050003 46 6 2.0 4.0 0.00 0.00 0.00 93 1003.8
20260504045003 46 19 2.0 4.0 0.00 0.00 0.00 93 1003.8
20260504044003 46 0 0.0 4.0 0.00 0.00 0.00 93 1004.1
20260504043003 46 296 2.0 4.0 0.00 0.00 0.00 93 1004.0
20260504042003 46 324 1.0 6.0 0.00 0.00 0.00 94 1004.1
20260504041003 46 323 2.0 4.0 0.00 0.00 0.00 95 1004.0
20260504040004 45 318 1.0 4.0 0.00 0.00 0.00 96 1004.1
20260504035003 45 319 1.0 4.0 0.00 0.00 0.00 96 1004.0
20260504034003 45 325 1.0 4.0 0.00 0.00 0.00 96 1004.2
20260504033003 45 0 0.0 2.0 0.00 0.00 0.00 97 1004.2
20260504032003 45 0 0.0 2.0 0.00 0.00 0.00 97 1004.3
20260504031003 45 274 1.0 2.0 0.00 0.00 0.00 96 1004.1
20260504030003 45 0 0.0 4.0 0.00 0.00 0.00 96 1004.4
20260504025003 46 287 2.0 4.0 0.00 0.00 0.00 95 1004.4
20260504024003 46 0 0.0 2.0 0.00 0.00 0.00 94 1004.4
20260504023003 46 0 0.0 2.0 0.00 0.00 0.00 94 1004.4
20260504022003 47 0 0.0 2.0 0.00 0.00 0.00 93 1004.8
20260504021003 47 0 0.0 4.0 0.00 0.00 0.00 93 1004.7
20260504020004 47 0 0.0 4.0 0.00 0.00 0.00 93 1004.6
20260504015003 47 269 2.0 4.0 0.00 0.00 0.00 93 1004.8
20260504014003 47 261 2.0 4.0 0.00 0.00 0.00 93 1004.7
20260504013003 47 254 1.0 4.0 0.00 0.00 0.00 93 1005.0
20260504012003 47 272 2.0 4.0 0.00 0.00 0.00 92 1005.2
20260504011003 47 277 2.0 4.0 0.00 0.00 0.00 92 1005.1
20260504010003 47 276 1.0 4.0 0.00 0.00 0.00 91 1005.5
20260504005004 47 282 2.0 4.0 0.00 0.00 0.00 91 1005.4
20260504004003 47 307 1.0 4.0 0.00 0.00 0.00 91 1005.5
20260504003003 47 276 1.0 4.0 0.00 0.00 0.00 91 1005.5
20260504001004 47 0 0.0 4.0 0.00 0.00 0.00 91 1005.7
20260504000003 47 286 2.0 4.0 0.00 0.00 0.00 91 1005.6
20260503235003 48 287 2.0 4.0 0.00 0.00 0.00 91 1005.8
20260503234004 48 265 2.0 4.0 0.00 0.00 0.00 92 1006.3
20260503233004 47 234 1.0 4.0 0.00 0.00 0.00 94 1006.3
20260503232003 47 228 2.0 4.0 0.00 0.00 0.00 95 1006.2
20260503231003 47 227 2.0 4.0 0.00 0.00 0.00 95 1006.3
20260503230003 47 226 1.0 4.0 0.00 0.00 0.00 95 1006.3